{"data":{"norad_id":62445,"epoch":"2026-05-24T21:43:08.760000Z","epoch_age_seconds":83275,"freshness":"FRESH","line1":"1 62445U 24251P   26144.90496250  .00017251  00000+0  59316-3 0  9999","line2":"2 62445  53.1590 341.5474 0001004  84.2030 275.9085 15.30203396 79617","mean_motion":15.30203396,"eccentricity":0.0001004,"inclination_deg":53.159,"raan_deg":341.5474,"arg_perigee_deg":84.203,"mean_anomaly_deg":275.9085,"bstar":0.00059316,"rev_number":7961,"period_min":94.105136857244,"perigee_km":474.51685406448,"apogee_km":475.89300512394,"semimajor_km":6853.3419295942,"source":"CELESTRAK","updated_at":"2026-05-25T13:38:19.659765Z"}}